• In Deutschland
  • Länderverzeichnis
  • Für 7 Tage
  • Wassertemperatur
  • Satellitenkarten
  • Wetterkarte
  • Widgets
  • user-avatar
    Anmelden

    Stündliche Wetter Oberursel

    Heute, 17 Oktober, Dienstag

    Zeit Temperatur Niederschläge Wind Luftdruck Luftfeuchtigkeit
    00:00 +15°C° 0 mm 1 m/S 749 mmHg 79%
    01:00 +15°C° 0 mm 1 m/S 749 mmHg 79%
    02:00 +14°C° 0 mm 1 m/S 749 mmHg 80%
    03:00 +14°C° 0 mm 1 m/S 749 mmHg 81%
    04:00 +14°C° 0 mm 1 m/S 749 mmHg 81%
    05:00 +13°C° 0 mm 1 m/S 749 mmHg 82%
    06:00 +13°C° 0 mm 1 m/S 749 mmHg 83%
    07:00 +13°C° 0 mm 1 m/S 749 mmHg 84%
    08:00 +15°C° 0 mm 1 m/S 749 mmHg 78%
    09:00 +18°C° 0 mm 1 m/S 749 mmHg 72%
    10:00 +19°C° 0 mm 1 m/S 749 mmHg 65%
    11:00 +21°C° 0 mm 1 m/S 749 mmHg 62%
    12:00 +22°C° 0 mm 1 m/S 749 mmHg 59%
    13:00 +23°C° 0 mm 1 m/S 748 mmHg 56%
    14:00 +23°C° 0 mm 1 m/S 748 mmHg 57%
    15:00 +23°C° 0 mm 1 m/S 748 mmHg 59%
    16:00 +23°C° 0 mm 1 m/S 747 mmHg 61%
    17:00 +21°C° 0 mm 1 m/S 747 mmHg 66%
    18:00 +19°C° 0 mm 1 m/S 747 mmHg 70%
    19:00 +16°C° 0 mm 1 m/S 746 mmHg 75%
    20:00 +16°C° 0 mm 1 m/S 746 mmHg 76%
    21:00 +15°C° 0 mm 1 m/S 746 mmHg 77%
    22:00 +15°C° 0 mm 1 m/S 746 mmHg 78%
    23:00 +14°C° 0 mm 1 m/S 746 mmHg 79%

    Morgen, 18 Oktober, Mittwoch

    Zeit Temperatur Niederschläge Wind Luftdruck Luftfeuchtigkeit
    00:00 +14°C° 0 mm 1 m/S 746 mmHg 79%
    01:00 +14°C° 0 mm 1 m/S 745 mmHg 80%
    02:00 +13°C° 0 mm 1 m/S 745 mmHg 80%
    03:00 +13°C° 0 mm 1 m/S 745 mmHg 81%
    04:00 +13°C° 0 mm 1 m/S 744 mmHg 81%
    05:00 +12°C° 0 mm 1 m/S 744 mmHg 81%
    06:00 +12°C° 0 mm 1 m/S 744 mmHg 82%
    07:00 +12°C° 0 mm 1 m/S 744 mmHg 82%
    08:00 +13°C° 0 mm 1 m/S 744 mmHg 75%
    09:00 +15°C° 0 mm 2 m/S 744 mmHg 69%
    10:00 +17°C° 0 mm 2 m/S 744 mmHg 62%
    11:00 +18°C° 0 mm 2 m/S 744 mmHg 59%
    12:00 +19°C° 0 mm 2 m/S 744 mmHg 55%
    13:00 +20°C° 0 mm 3 m/S 743 mmHg 52%
    14:00 +20°C° 0 mm 2 m/S 743 mmHg 54%
    15:00 +20°C° 0 mm 2 m/S 743 mmHg 56%
    16:00 +20°C° 0 mm 2 m/S 743 mmHg 59%
    17:00 +19°C° 0 mm 1 m/S 743 mmHg 64%
    18:00 +18°C° 0 mm 1 m/S 743 mmHg 69%
    19:00 +15°C° 0 mm 1 m/S 743 mmHg 74%
    20:00 +14°C° 0 mm 1 m/S 743 mmHg 75%
    21:00 +14°C° 0 mm 1 m/S 743 mmHg 77%
    22:00 +14°C° 0 mm 1 m/S 743 mmHg 78%
    23:00 +13°C° 0 mm 1 m/S 743 mmHg 79%

    übermorgen, 19 Oktober, Donnerstag

    Zeit Temperatur Niederschläge Wind Luftdruck Luftfeuchtigkeit
    00:00 +13°C° 0 mm 1 m/S 743 mmHg 80%
    01:00 +13°C° 0 mm 1 m/S 743 mmHg 80%
    02:00 +13°C° 0 mm 1 m/S 742 mmHg 80%
    03:00 +12°C° 0 mm 1 m/S 742 mmHg 81%
    04:00 +12°C° 0 mm 1 m/S 742 mmHg 81%
    05:00 +12°C° 0 mm 1 m/S 742 mmHg 81%
    06:00 +12°C° 0 mm 1 m/S 742 mmHg 81%
    07:00 +11°C° 0 mm 1 m/S 742 mmHg 81%
    08:00 +13°C° 0 mm 1 m/S 742 mmHg 75%
    09:00 +15°C° 0 mm 1 m/S 742 mmHg 69%
    10:00 +18°C° 0 mm 1 m/S 742 mmHg 63%
    11:00 +18°C° 0 mm 2 m/S 742 mmHg 59%
    12:00 +19°C° 0 mm 2 m/S 742 mmHg 55%
    13:00 +21°C° 0 mm 2 m/S 742 mmHg 52%
    14:00 +20°C° 0 mm 2 m/S 742 mmHg 54%
    15:00 +20°C° 0 mm 2 m/S 742 mmHg 56%
    16:00 +19°C° 0 mm 2 m/S 742 mmHg 58%
    17:00 +18°C° 0 mm 2 m/S 742 mmHg 60%
    18:00 +17°C° 0 mm 2 m/S 742 mmHg 63%
    19:00 +16°C° 0 mm 2 m/S 742 mmHg 65%
    20:00 +16°C° 0 mm 2 m/S 742 mmHg 66%
    21:00 +16°C° 0 mm 2 m/S 742 mmHg 67%
    22:00 +15°C° 0 mm 2 m/S 742 mmHg 68%
    23:00 +15°C° 0,1 mm 2 m/S 742 mmHg 70%

    20 Oktober, Freitag

    Zeit Temperatur Niederschläge Wind Luftdruck Luftfeuchtigkeit
    00:00 +15°C° 0,1 mm 2 m/S 742 mmHg 71%
    01:00 +14°C° 0,1 mm 2 m/S 742 mmHg 72%
    02:00 +14°C° 0,5 mm 2 m/S 742 mmHg 75%
    03:00 +14°C° 0,5 mm 2 m/S 742 mmHg 78%
    04:00 +14°C° 0,5 mm 2 m/S 741 mmHg 80%
    05:00 +14°C° 0,7 mm 2 m/S 741 mmHg 81%
    06:00 +13°C° 0,7 mm 3 m/S 742 mmHg 82%
    07:00 +13°C° 0,7 mm 3 m/S 742 mmHg 82%
    08:00 +14°C° 0,4 mm 4 m/S 742 mmHg 81%
    09:00 +15°C° 0,4 mm 4 m/S 742 mmHg 80%
    10:00 +16°C° 0,4 mm 5 m/S 742 mmHg 79%
    11:00 +16°C° 0 mm 5 m/S 742 mmHg 75%
    12:00 +17°C° 0 mm 5 m/S 742 mmHg 72%
    13:00 +19°C° 0 mm 5 m/S 742 mmHg 69%
    14:00 +19°C° 0 mm 5 m/S 742 mmHg 70%
    15:00 +18°C° 0 mm 4 m/S 742 mmHg 70%
    16:00 +18°C° 0 mm 4 m/S 742 mmHg 71%
    17:00 +17°C° 0 mm 3 m/S 742 mmHg 76%
    18:00 +16°C° 0 mm 3 m/S 743 mmHg 80%
    19:00 +15°C° 0 mm 2 m/S 743 mmHg 85%
    20:00 +14°C° 0 mm 2 m/S 743 mmHg 87%
    21:00 +14°C° 0 mm 2 m/S 743 mmHg 88%
    22:00 +14°C° 0 mm 2 m/S 743 mmHg 90%
    23:00 +14°C° 0 mm 2 m/S 743 mmHg 89%

    21 Oktober, Samstag

    Zeit Temperatur Niederschläge Wind Luftdruck Luftfeuchtigkeit
    00:00 +14°C° 0 mm 2 m/S 743 mmHg 88%
    01:00 +14°C° 0 mm 2 m/S 743 mmHg 88%
    02:00 +14°C° 0 mm 2 m/S 743 mmHg 86%
    03:00 +14°C° 0 mm 3 m/S 742 mmHg 84%
    04:00 +14°C° 0 mm 3 m/S 742 mmHg 82%
    05:00 +14°C° 0,6 mm 3 m/S 742 mmHg 85%
    06:00 +14°C° 0,6 mm 3 m/S 742 mmHg 87%
    07:00 +14°C° 0,6 mm 3 m/S 742 mmHg 89%
    08:00 +14°C° 0,3 mm 3 m/S 742 mmHg 88%
    09:00 +14°C° 0,3 mm 3 m/S 742 mmHg 88%
    10:00 +16°C° 0,3 mm 3 m/S 743 mmHg 87%
    11:00 +16°C° 0,9 mm 3 m/S 742 mmHg 88%
    12:00 +15°C° 0,9 mm 4 m/S 742 mmHg 88%
    13:00 +15°C° 0,9 mm 4 m/S 742 mmHg 89%
    14:00 +16°C° 1,5 mm 3 m/S 742 mmHg 90%
    15:00 +14°C° 1,5 mm 3 m/S 743 mmHg 90%
    16:00 +14°C° 1,5 mm 3 m/S 743 mmHg 91%
    17:00 +14°C° 0,2 mm 3 m/S 743 mmHg 90%
    18:00 +14°C° 0,2 mm 3 m/S 743 mmHg 89%
    19:00 +13°C° 0,2 mm 3 m/S 743 mmHg 89%
    20:00 +13°C° 0,1 mm 3 m/S 743 mmHg 88%
    21:00 +13°C° 0,1 mm 3 m/S 743 mmHg 86%
    22:00 +12°C° 0,1 mm 3 m/S 743 mmHg 85%
    23:00 +12°C° 0 mm 3 m/S 743 mmHg 86%

    22 Oktober, Sonntag

    Zeit Temperatur Niederschläge Wind Luftdruck Luftfeuchtigkeit
    00:00 +12°C° 0 mm 3 m/S 742 mmHg 87%
    01:00 +11°C° 0 mm 3 m/S 742 mmHg 88%
    02:00 +11°C° 0,1 mm 4 m/S 742 mmHg 86%
    03:00 +11°C° 0,1 mm 4 m/S 742 mmHg 85%
    04:00 +11°C° 0,1 mm 4 m/S 743 mmHg 84%
    05:00 +10°C° 0 mm 4 m/S 743 mmHg 84%
    06:00 +8°C° 0 mm 4 m/S 743 mmHg 84%
    07:00 +8°C° 0 mm 4 m/S 743 mmHg 84%
    08:00 +8°C° 0 mm 5 m/S 743 mmHg 80%
    09:00 +9°C° 0 mm 5 m/S 743 mmHg 76%
    10:00 +10°C° 0 mm 6 m/S 743 mmHg 72%
    11:00 +10°C° 0 mm 6 m/S 743 mmHg 70%
    12:00 +10°C° 0 mm 6 m/S 743 mmHg 69%
    13:00 +10°C° 0 mm 6 m/S 743 mmHg 67%
    14:00 +10°C° 0 mm 6 m/S 743 mmHg 67%
    15:00 +10°C° 0 mm 5 m/S 743 mmHg 67%
    16:00 +10°C° 0 mm 5 m/S 743 mmHg 68%
    17:00 +9°C° 0,1 mm 5 m/S 743 mmHg 70%
    18:00 +9°C° 0,1 mm 5 m/S 744 mmHg 73%
    19:00 +8°C° 0,1 mm 5 m/S 744 mmHg 76%
    20:00 +8°C° 0,3 mm 5 m/S 745 mmHg 78%
    21:00 +8°C° 0,3 mm 5 m/S 745 mmHg 81%
    22:00 +8°C° 0,3 mm 5 m/S 745 mmHg 83%
    23:00 +8°C° 0,2 mm 4 m/S 745 mmHg 84%
    Mehr zeigen